Showing default

COSMOS 2538, 44424

Orbit data source: Space-Track

COSMOS 2538, 44424 is a payload satellite owned by TsNIIKhM (CIS) in SSO that was launched on Wed, 10 Jul 2019 UTC via a SOYUZ-2-1V launch vehicle from the Plesetsk Missile And Space Complex (PKMTR). Payload-class satellites include a variety of spacecraft equipped with specific instruments for various scientific and technological missions. These include communications satellites like Starlink; space stations such as the ISS; scientific satellites like the Hubble; Earth observation satellites from companies like Planet Labs, Umbra, and HawkEye 360; GPS; miniature CubeSats for education and research; and military/defense satellites.

Loading next visibility...
Identifier
44424, 2019-039D
Orbit
SSO
Country
Flag of CISCIS
Related business
Manufacturer
TsNIIKhM
Mission
Operational Defense Technology
Bus & Motor
NIVELIR, Unknown motor
Mass
~100 kg wet, ~100 kg dry
Launch date (UTC)
2019-07-10 (7 years ago)
Launch vehicle
SOYUZ-2-1V
Launch site
Plesetsk Missile And Space Complex (PKMTR)
Object type
Payload
Rocket body
Debris
Shape & HBR
Hex Cyl + 1 Ant, 0.4 m
Radar Cross Section
0.503 m², Medium (>0.1 m² and < 1m²)

Expand to show TLE details & history
Last TLE update: 10 hours ago

TLE from 10 hours ago
0 COSMOS 2538
1 44424U 19039D   26192.18718277  .00003002  00000-0  13589-3 0  9995
2 44424  97.5878 271.7520 0040612 322.4464  37.3936 15.20976245383552
Epoch: 2026-07-11T04:29Z
TLE epoch observation values (Epoch: 2026-07-11T04:29:32.591Z)
Latitude
Longitude
-84.7378°
Altitude
483.816 km
Speed
7.636 km/s
True Right ascension
18h 07m 00s
True Declination
0° 00' 00"
Sunlit
Object was in full shadow at epoch
Visualization orbit readout
Latitude
Unknown
Longitude
Unknown
Altitude
Unknown
Speed
Unknown
Apparent Right ascension
Unknown
Apparent Declination
Unknown
Sunlit
N/A
Visualization observer readout
Local Sidereal Time
02:43:28
Azimuth
Unknown
Elevation
Unknown
Doppler factor
Unknown
Orbital elements
Apogee altitude
527.8 km
Perigee altitude
471.934 km
Semi-major axis
6,878.004 km
Eccentricity
0.00406
Inclination
97.5878°
RAAN
271.752°
Arg. of periapsis
322.4464°
True anomaly
37.67736°
Mean anomaly
37.3936°
Eccentric anomaly
37.53537°
Mean motion
3.80496 °/min
Orbital period
94.61 mins
BSTAR
0.00013589

Documentation

Showing up to 5 results
|